Regional Weather Roundup
Issued by NWS

Home | Current Version | Previous Version | Graphics & Text | Print | Product List | Glossary On
Versions: 1 2 3 4 5 6 7 8 9 10 11 12 13 14 15 16 17 18 19 20 21 22 23 24 25 26 27 28 29 30 31 32 33 34 35 36 37 38 39 40 41 42 43 44 45 46 47 48 49 50
000
ASUS43 KBIS 051910
RWRND

NORTH DAKOTA REGIONAL WEATHER ROUNDUP
NATIONAL WEATHER SERVICE BISMARCK ND
100 PM CST FRI FEB 05 2016

NOTE: "FAIR" INDICATES FEW OR NO CLOUDS BELOW 12,000 FEET WITH NO
SIGNIFICANT WEATHER AND/OR OBSTRUCTIONS TO VISIBILITY.


NDZ001>003-009>011-017-052000-
NORTHWEST NORTH DAKOTA

CITY           SKY/WX    TMP DP  RH WIND       PRES   REMARKS
WILLISTON      SUNNY     31  24  75 SW14      30.14F
MINOT          SUNNY     35  15  44 SW12      30.11F
MINOT AFB      SUNNY     33  16  50 W9G18     30.10F
$$

NDZ018>021-031>035-040>046-052000-
SOUTHWEST NORTH DAKOTA

CITY           SKY/WX    TMP DP  RH WIND       PRES   REMARKS
BISMARCK       SUNNY     38  19  46 NW8       30.18F
DICKINSON      SUNNY     34  26  72 W17       30.12F
GARRISON         N/A     33  17  51 W15       30.12F
HETTINGER ARPT MOSUNNY   36  24  62 W20       30.17F
$$

NDZ004>008-012>016-024-026-027-054-052000-
NORTHEAST NORTH DAKOTA

CITY           SKY/WX    TMP DP  RH WIND       PRES   REMARKS
GRAND FORKS    MOSUNNY   25  16  68 NW6       30.14F WCI  18
GRND FRKS AFB  SUNNY     24  16  70 N5        30.13F WCI  18
DEVILS LAKE    SUNNY     23  18  81 W10       30.14F WCI  12
$$

NDZ022-023-025-028>030-036>039-047>053-052000-
SOUTHEAST NORTH DAKOTA

CITY           SKY/WX    TMP DP  RH WIND       PRES   REMARKS
FARGO          MOSUNNY   29  23  78 SW9       30.13F
JAMESTOWN      SUNNY     29  19  66 NW12      30.13F WCI  19
$$




USA.gov is the U.S. government's official web portal to all federal, state and local government web resources and services.